Location: Chandrammap?lem
(16.9200°N, 81.0051°E)
Time: 06:35:09
(UTC+00:00)

Cosmos 372 Rocket - Pass Details

Date: 29 May 2024
Orbit: 736 x 765 km, 74.1° (Epoch: 19 June)

Event Time Altitude Azimuth Distance (km) Brightness Sun altitude
Exits shadow 22:24:18 36° 190° (S) 1,190 4.6 -21.5°
Maximum altitude 22:26:30 87° 102° (ESE) 765 3.9 -21.1°
Drops below altitude 10° 22:31:43 10° 14° (NNE) 2,294 7.1 -20.0°
Sets 22:34:05 0° 14° (NNE) 3,222 7.9 -19.5°
